Overview Statistics Trail Chart Weather Telemetry Raw packets
 

This is the latest recevied weather packets stored in our database for station/object NK7E-2. If no packets are shown the sender has not sent any weather packets the latest 10 day(s).

<< 30 31 32 33 34 35 36 >>
Time Temp. Humidity Pressure Rain* Wind** Luminosity Snow
1787994016 29.44° C 41% 1028.9 hPa 0 mm - - -
1787993416 29.44° C 38% 1028.9 hPa 0 mm - - -
1787992816 30° C 38% 1029 hPa 0 mm - - -
1787992216 29.44° C 38% 1029.1 hPa 0 mm - - -
1787991616 29.44° C 39% 1029.1 hPa 0 mm - - -
1787991016 29.44° C 39% 1029.1 hPa 0 mm - - -
1787990428 29.44° C 39% 1029.2 hPa 0 mm - - -
1787989816 30° C 38% 1029.1 hPa 0 mm - - -
1787989216 31.11° C 35% 1029.3 hPa 0 mm - - -
1787988616 31.11° C 34% 1029.3 hPa 0 mm - - -
1787988016 31.11° C 35% 1029.4 hPa 0 mm - - -
1787987416 30.56° C 36% 1029.4 hPa 0 mm - - -
1787986816 30.56° C 36% 1029.5 hPa 0 mm - - -
1787986217 30.56° C 36% 1029.5 hPa 0 mm - - -
1787985617 30.56° C 36% 1029.7 hPa 0 mm - - -
1787985017 30° C 36% 1029.5 hPa 0 mm - - -
1787984416 29.44° C 40% 1029.6 hPa 0 mm - - -
1787983816 29.44° C 40% 1029.8 hPa 0 mm - - -
1787983216 30° C 38% 1029.5 hPa 0 mm - - -
1787982616 30° C 39% 1029.4 hPa 0 mm - - -
1787982016 30° C 38% 1029.4 hPa 0 mm - - -
1787981416 30.56° C 39% 1029.2 hPa 0 mm - - -
1787980816 30.56° C 38% 1029 hPa 0 mm - - -
1787980216 30.56° C 39% 1029 hPa 0 mm - - -
1787979616 31.11° C 34% 1029.1 hPa 0 mm - - -

* Rain latest hour (hover to see other rain measurements)
** Current wind speed in m/s (hover to see current wind gust speed)